[[{"header":{"parameterUnit":"m.s-1","parameterCategory":1,"la1":30.2992,"la2":30.254,"lo1":-89.0895,"lo2":-89.0443,"dy":0.0025,"dx":0.0025,"nx":19,"ny":19,"refTime":"2026-05-16T03:00:00:Z","depth":0,"parameterNumber":2,"parameterNumberName":"U-component_of_WINDS"},"data":[0,0,0,-5.0538,-5.054,-5.0599,-5.06,-5.0692,-5.0693,0,0,0,0,0,0,0,0,0,0,0,-5.053,-5.0531,-5.0538,-5.054,-5.0599,-5.06,-5.0692,-5.0693,0,0,0,0,0,0,0,0,0,0,0,-5.053,-5.0531,-5.0532,-5.054,-5.0599,-5.06,-5.0691,-5.0641,0,0,0,0,0,0,0,0,0,0,-5.058,-5.0582,-5.0531,-5.0532,-5.0541,-5.0599,-5.06,-5.0638,-5.0644,-5.0672,0,-5.0699,0,-5.0698,-5.07,-5.07,0,0,0,-5.0532,-5.0577,-5.0585,-5.0532,-5.0541,-5.0599,-5.057,-5.0641,-5.0648,-5.068,-5.07,-5.0703,-5.0699,-5.0701,-5.0701,-5.0888,-5.089,0,0,-5.0529,-5.0546,-5.058,-5.059,-5.0582,-5.0569,-5.0572,-5.0645,-5.0668,-5.0701,-5.0705,-5.0701,-5.0701,-5.0702,-5.0887,-5.0889,0,0,0,-5.0525,-5.0544,-5.0549,-5.0586,-5.0596,-5.057,-5.0575,-5.0665,-5.0665,-5.0706,-5.0702,-5.0702,-5.0703,-5.0886,-5.0888,-5.0964,0,0,0,-5.0522,-5.0541,-5.0548,-5.0559,-5.0595,-5.0631,-5.0594,-5.066,-5.0668,-5.0701,-5.0702,-5.0704,-5.0884,-5.0887,-5.0959,-5.0996,0,0,0,-5.0523,-5.0541,-5.0553,-5.056,-5.0586,-5.063,-5.0634,-5.0662,-5.0666,-5.07,-5.0705,-5.0884,-5.0886,-5.0954,-5.0989,-5.1049,0,0,0,-5.0528,-5.062,-5.0555,-5.0656,-5.0586,-5.0677,-5.0633,-5.07,-5.0739,-5.0703,-5.0885,-5.0888,-5.0953,-5.0984,-5.1045,-5.1102,-5.1128,0,0,-5.0653,-5.0635,-5.0694,-5.0637,-5.0744,-5.0667,-5.0785,-5.0804,-5.0792,-5.0857,-5.0861,-5.0961,-5.0988,-5.1048,-5.1272,-5.1293,0,0,0,-5.0739,-5.0781,-5.0806,-5.0844,-5.0862,-5.088,-5.088,-5.0887,-5.0942,-5.0829,-5.1,-5.1016,-5.105,-5.1076,-5.1094,-5.1122,-5.0901,-5.0901,-5.0901,-5.0937,-5.0918,-5.1013,-5.1002,-5.104,-5.104,-5.1069,-5.1079,-5.1047,-5.1089,-5.1106,-5.1245,-5.1276,-5.1289,-5.1319,-5.1137,-5.1138,-5.1138,-5.1138,-5.1116,-5.1172,-5.1131,-5.1208,-5.1187,-5.1252,-5.1257,-5.1233,-5.1289,-5.1229,-5.1259,-5.1192,-5.1313,-5.1338,-5.1144,-5.1143,-5.1142,-5.1141,-5.1141,-5.1242,-5.1265,-5.1274,-5.1329,-5.1373,-5.136,-5.1416,-5.1396,-5.1377,-5.1407,-5.1423,-5.1422,-5.1416,-5.1417,-5.1417,-5.1418,-5.1418,-5.1419,-5.1419,-5.1367,-5.1375,-5.1425,-5.1455,-5.1477,-5.1505,-5.1509,-5.153,-5.1549,-5.1529,-5.1529,-5.1494,-5.133,-5.1287,-5.1426,-5.1425,-5.1424,-5.1423,-5.1423,-5.155,-5.1506,-5.1584,-5.1608,-5.1641,-5.1686,-5.1662,-5.1708,-5.1724,-5.1752,-5.1712,-5.1595,-5.1574,-5.156,-5.1525,-5.1717,-5.1717,-5.1717,-5.1717,-5.1654,-5.1644,-5.1719,-5.1758,-5.1793,-5.1779,-5.1868,-5.1873,-5.1871,-5.1879,-5.185,-5.1802,-5.1789,-5.1776,-5.1757,-5.1724,-5.1962,-5.1962,-5.1963,-5.1765,-5.1758,-5.1836,-5.1835,-5.186,-5.1883,-5.1965,-5.2011,-5.2,-5.1972,-5.1885,-5.1875,-5.1798,-5.1774,-5.1741,-5.1712,-5.165,0,0]},{"header":{"parameterUnit":"m.s-1","parameterCategory":1,"la1":30.2992,"la2":30.254,"lo1":-89.0895,"lo2":-89.0443,"dy":0.0025,"dx":0.0025,"nx":19,"ny":19,"refTime":"2026-05-16T03:00:00:Z","depth":0,"parameterNumber":3,"parameterNumberName":"V-component_of_WINDS"},"data":[0,0,0,4.7733,4.7733,4.7757,4.7757,4.7781,4.7782,0,0,0,0,0,0,0,0,0,0,0,4.7723,4.7723,4.7733,4.7733,4.7757,4.7757,4.7781,4.7782,0,0,0,0,0,0,0,0,0,0,0,4.7723,4.7723,4.7723,4.7733,4.7757,4.7757,4.7781,4.7765,0,0,0,0,0,0,0,0,0,0,4.7743,4.7732,4.7723,4.7723,4.7733,4.7756,4.7757,4.7765,4.7766,4.7769,0,4.7771,0,4.7777,4.7783,4.7783,0,0,0,4.7735,4.7731,4.774,4.7723,4.7733,4.7756,4.7746,4.7766,4.7768,4.7771,4.7772,4.7773,4.7777,4.7783,4.7783,4.7795,4.7795,0,0,4.7733,4.7726,4.7738,4.7741,4.7738,4.7746,4.7747,4.7767,4.7766,4.7772,4.7773,4.7778,4.7783,4.7784,4.7795,4.7795,0,0,0,4.7729,4.7725,4.7733,4.774,4.7744,4.7746,4.7748,4.7766,4.7769,4.7774,4.7778,4.7783,4.7784,4.7796,4.7795,4.7788,0,0,0,4.7728,4.7722,4.7732,4.7728,4.7744,4.7755,4.7746,4.7768,4.777,4.7778,4.7783,4.7784,4.7796,4.7795,4.7788,4.7786,0,0,0,4.7722,4.7721,4.7724,4.7728,4.7738,4.7755,4.776,4.7768,4.7773,4.7783,4.7784,4.7796,4.7795,4.7789,4.7786,4.7787,0,0,0,4.7714,4.7716,4.7724,4.7728,4.7737,4.7751,4.776,4.777,4.7778,4.7784,4.7796,4.7795,4.7789,4.7786,4.7787,4.7787,4.7786,0,0,4.7712,4.7715,4.7718,4.7726,4.7737,4.7748,4.7757,4.7771,4.7778,4.7789,4.7789,4.7788,4.7786,4.7787,4.7783,4.7783,0,0,0,4.7715,4.7717,4.7722,4.773,4.7742,4.7751,4.7765,4.777,4.778,4.7782,4.7789,4.7788,4.7789,4.7789,4.7788,4.779,4.7795,4.7795,4.7795,4.7701,4.7712,4.7718,4.7732,4.7739,4.7754,4.7761,4.7771,4.7778,4.7779,4.7783,4.7779,4.7779,4.7779,4.778,4.7783,4.7783,4.7783,4.7783,4.7699,4.7704,4.7716,4.7726,4.7737,4.7745,4.7759,4.7765,4.7773,4.7777,4.7779,4.7782,4.7777,4.7779,4.7783,4.7783,4.7783,4.7783,4.7783,4.7691,4.7695,4.7703,4.7717,4.7726,4.774,4.7749,4.7758,4.7767,4.7768,4.7773,4.7773,4.7774,4.777,4.777,4.777,4.777,4.777,4.777,4.768,4.7689,4.7695,4.7709,4.7716,4.7727,4.7743,4.775,4.776,4.7766,4.7766,4.7773,4.7775,4.7776,4.777,4.777,4.777,4.777,4.777,4.7674,4.7677,4.7687,4.7695,4.7712,4.7721,4.7734,4.7748,4.7755,4.7759,4.7766,4.7766,4.777,4.777,4.7771,4.7764,4.7764,4.7764,4.7764,4.7667,4.767,4.7684,4.7695,4.7707,4.772,4.7731,4.7744,4.7757,4.7762,4.7765,4.7766,4.7766,4.777,4.777,4.7771,4.7764,4.7764,4.7764,4.7664,4.7669,4.7677,4.7692,4.7707,4.7719,4.773,4.7742,4.7757,4.7764,4.7766,4.7766,4.7769,4.7769,4.7775,4.7776,4.7777,0,0]}]]